{"data":{"norad_id":45673,"intl_designator":"2020-035S","name":"STARLINK-1456","alt_names":[],"object_type":"PAYLOAD","status":"ACTIVE","operator":null,"country":"US","launch_date":"2020-06-04","launch_site_code":"AFETR","launch_vehicle":null,"mission":null,"orbit_class":"UNKNOWN","rcs_meters":null,"size_class":null,"mass_kg":null,"dimensions":null,"purposes":["comms"],"wikipedia_slug":null,"has_3d_model":false,"image_url":null,"decayed_at":null,"tle_current":{"epoch":"2026-09-20T03:19:04.671264Z","epoch_age_seconds":49381,"freshness":"FRESH","line1":"1 45673U 20035S   26263.13824851  .00064712  00000+0  31212-3 0  9997","line2":"2 45673  53.0383 169.6653 0006203 121.9203 238.2423 15.81983257349508","mean_motion":15.81983257,"eccentricity":0.0006203,"inclination_deg":53.0383,"raan_deg":169.6653,"arg_perigee_deg":121.9203,"mean_anomaly_deg":238.2423,"bstar":0.00031212,"rev_number":34950,"period_min":91.024983584893,"perigee_km":320.67479489484,"apogee_km":328.99049903887,"semimajor_km":6702.9696469669,"source":"CELESTRAK","updated_at":"2026-09-20T09:00:38.451363Z"}}}